Location: Starlight Observatory
(38.4029°N, 85.8936°W)
Time: 19:33:15
(UTC-04:00)

Amateur Radio Satellites - All Passes

Search period start: 01 September 2014 19:03
Search period end: 02 September 2014 19:03
Location: Starlight Observatory, 38.4029°N, 85.8936°W

Satellite Date Start Highest point End Downlink Frequencies (MHz)
Time Altitude Azimuth
Sapphire 01 Sep 19:03:00 19:07:00 21° 312° (NW) 19:11:00 437.095 MHz 1200 baud AX-25 AFSK
RS-15 01 Sep 19:13:48 19:23:47 40° 252° (WSW) 19:34:10 29.354 - 29.394 USB, Beacon 29.352 USB
JAS-2 01 Sep 19:19:43 19:25:50 61° 258° (WSW) 19:31:19 435.800 - 435.900 CW/SSB, 435.910 FM
AO-7 01 Sep 19:31:12 19:33:10 11° 272° (W) 19:35:09 29.400 - 29.500 MHz
PCSat 01 Sep 19:34:48 19:36:50 12° 319° (NW) 19:38:52 145.825 MHz
SO-67 01 Sep 19:41:01 19:44:11 34° 74° (ENE) 19:47:22 435.3500 MHz FM
Hamsat 01 Sep 20:15:30 20:17:08 12° 270° (W) 20:18:46 145.90 MHz
STRAND 1 01 Sep 20:28:04 20:33:10 69° 102° (ESE) 20:38:14 ?
HO-68 01 Sep 20:48:27 20:54:27 30° 62° (ENE) 21:00:28 435.675 MHz FM
SO-67 01 Sep 21:16:16 21:17:22 11° 268° (W) 21:18:28 435.3500 MHz FM
UKube-1 01 Sep 22:08:33 22:12:48 58° 74° (ENE) 22:17:05 145.840 MHz, 145.915 MHz
STRAND 1 01 Sep 22:09:10 22:11:44 14° 298° (WNW) 22:14:19 ?
Oscar 11 01 Sep 22:12:37 22:16:38 38° 72° (ENE) 22:20:41 145.825 FM, Beacon 2401.500 USB
HO-68 01 Sep 22:34:57 22:41:49 50° 259° (W) 22:48:44 435.675 MHz FM
Saudisat 1A 01 Sep 22:42:46 22:47:00 49° 116° (ESE) 22:51:16 436.775 MHz
FUNcube-1 01 Sep 22:44:38 22:48:21 32° 71° (ENE) 22:52:09 145.950 - 145.970 MHz USB
AO-40 01 Sep 22:57:15 05:03:30 44° 165° (SSE) 06:45:52 Beacon 2401.320
MaSat-1 01 Sep 23:08:46 23:13:10 50° 61° (ENE) 23:16:55 437.345 MHz
KITSAT 1 01 Sep 23:25:14 23:32:47 45° 110° (ESE) 23:40:21 435.175 FM
UKube-1 01 Sep 23:48:05 23:49:21 11° 269° (W) 23:50:37 145.840 MHz, 145.915 MHz
Oscar 11 01 Sep 23:50:08 23:52:57 17° 267° (W) 23:55:48 145.825 FM, Beacon 2401.500 USB
FUNcube-1 02 Sep 00:21:50 00:24:49 19° 267° (W) 00:27:51 145.950 - 145.970 MHz USB
Saudisat 1A 02 Sep 00:23:42 00:26:50 19° 314° (NW) 00:29:59 436.775 MHz
MaSat-1 02 Sep 00:47:55 00:49:24 12° 262° (W) 00:50:48 437.345 MHz
PCSat 02 Sep 00:55:53 00:57:25 11° 40° (NE) 00:58:57 145.825 MHz
KITSAT 1 02 Sep 01:20:40 01:28:12 42° 309° (NW) 01:35:47 435.175 FM
Sapphire 02 Sep 02:07:31 02:12:29 35° 54° (NE) 02:17:26 437.095 MHz 1200 baud AX-25 AFSK
PCSat 02 Sep 02:36:29 02:41:54 66° 60° (ENE) 02:47:16 145.825 MHz
Oscar 19 02 Sep 02:40:24 02:45:02 32° 97° (E) 02:49:37 437.125 CW, 437.150 USB
AO-Echo 02 Sep 02:50:06 02:53:07 17° 93° (E) 02:56:09 ?
Oscar 16 02 Sep 03:15:18 03:20:31 74° 102° (ESE) 03:25:41 437.025 USB, Beacon 2401.1428
Oscar 10/S400 02 Sep 03:16:29 04:27:45 45° 226° (SW) 10:12:30 145.825 - 145.975 CW/USB, Beacon 145.810 USB
ITAMSAT 1 02 Sep 03:18:10 03:22:45 31° 97° (E) 03:27:19 435.822 SSB
SO-50 02 Sep 03:22:23 03:26:12 28° 113° (ESE) 03:30:05 436.795 FM
KITSAT 1 02 Sep 03:23:21 03:26:12 12° 335° (NNW) 03:29:03 435.175 FM
Uribyol 2 02 Sep 03:27:16 03:32:11 41° 99° (E) 03:37:04 436.500 FM
JAS-1B 02 Sep 03:33:20 03:39:23 40° 96° (E) 03:44:46 435.800 - 435.900 CW/SSB
TMSAT-1 02 Sep 03:40:48 03:44:09 17° 92° (E) 03:47:29 436.925 FM
AO-27 02 Sep 03:47:28 03:52:37 62° 101° (ESE) 03:57:45 436.795 MHz FM
Sapphire 02 Sep 03:51:05 03:55:48 31° 251° (WSW) 04:00:29 437.095 MHz 1200 baud AX-25 AFSK
OPAL 02 Sep 04:17:14 04:21:02 22° 63° (ENE) 04:24:53 ?
Oscar 19 02 Sep 04:19:50 04:24:15 29° 292° (WNW) 04:28:39 437.125 CW, 437.150 USB
PCSat 02 Sep 04:21:39 04:24:42 15° 256° (WSW) 04:27:45 145.825 MHz
AO-Echo 02 Sep 04:27:39 04:32:06 44° 288° (WNW) 04:36:35 ?
Gurwin Techsat 1B 02 Sep 04:29:10 04:34:28 70° 102° (ESE) 04:39:45 435.225 FM
Oscar 16 02 Sep 04:56:43 04:59:12 14° 299° (WNW) 05:01:41 437.025 USB, Beacon 2401.1428
ITAMSAT 1 02 Sep 04:57:42 05:02:08 30° 292° (WNW) 05:06:35 435.822 SSB
SO-50 02 Sep 05:02:45 05:06:40 29° 310° (NW) 05:10:42 436.795 FM
Uribyol 2 02 Sep 05:07:21 05:11:23 23° 294° (WNW) 05:15:24 436.500 FM
UOSAT-12 02 Sep 05:08:18 05:12:11 27° 112° (ESE) 05:16:07 437.025 FM, 437.400 FM
TMSAT-1 02 Sep 05:19:13 05:24:23 55° 287° (WNW) 05:29:32 436.925 FM
Uosat F 02 Sep 05:20:29 05:24:43 27° 96° (E) 05:28:55 435.120 FM
JAS-1B 02 Sep 05:24:23 05:29:46 27° 298° (WNW) 05:34:38 435.800 - 435.900 CW/SSB
AO-27 02 Sep 05:28:32 05:31:35 16° 297° (WNW) 05:34:38 436.795 MHz FM
AO-7 02 Sep 05:34:16 05:42:06 45° 100° (E) 05:49:53 29.400 - 29.500 MHz
OPAL 02 Sep 05:54:46 05:59:35 44° 259° (W) 06:04:29 ?
Gurwin Techsat 1B 02 Sep 06:10:58 06:13:49 15° 298° (WNW) 06:16:40 435.225 FM
Hamsat 02 Sep 06:26:34 06:27:41 11° 90° (E) 06:28:48 145.90 MHz
JAS-2 02 Sep 06:31:05 06:34:15 16° 93° (E) 06:37:32 435.800 - 435.900 CW/SSB, 435.910 FM
UOSAT-12 02 Sep 06:48:03 06:52:12 32° 309° (NW) 06:56:27 437.025 FM, 437.400 FM
Uosat F 02 Sep 06:59:04 07:03:28 32° 292° (WNW) 07:07:51 435.120 FM
Saudisat 1A 02 Sep 07:11:06 07:14:53 27° 50° (NE) 07:18:39 436.775 MHz
KITSAT 1 02 Sep 07:20:23 07:26:02 20° 37° (NE) 07:31:39 435.175 FM
RS-15 02 Sep 07:23:18 07:33:18 41° 108° (ESE) 07:43:06 29.354 - 29.394 USB, Beacon 29.352 USB
AO-7 02 Sep 07:27:14 07:34:44 40° 298° (WNW) 07:42:13 29.400 - 29.500 MHz
STRAND 1 02 Sep 07:42:30 07:47:36 85° 75° (ENE) 07:52:43 ?
Hamsat 02 Sep 07:59:44 08:04:00 58° 285° (WNW) 08:08:13 145.90 MHz
JAS-2 02 Sep 08:14:25 08:19:38 60° 286° (WNW) 08:25:20 435.800 - 435.900 CW/SSB, 435.910 FM
SO-67 02 Sep 08:38:50 08:42:13 52° 100° (E) 08:45:35 435.3500 MHz FM
Saudisat 1A 02 Sep 08:50:35 08:54:26 30° 247° (WSW) 08:58:16 436.775 MHz
KITSAT 1 02 Sep 09:14:43 09:22:50 77° 60° (ENE) 09:30:53 435.175 FM
RS-15 02 Sep 09:34:27 09:45:14 56° 309° (NW) 09:55:57 29.354 - 29.394 USB, Beacon 29.352 USB
ISS 02 Sep 09:46:17 09:49:11 28° 133° (SE) 09:52:05 145.800 FM
UKube-1 02 Sep 10:00:58 10:02:03 11° 91° (E) 10:03:09 145.840 MHz, 145.915 MHz
HO-68 02 Sep 10:04:17 10:10:42 35° 97° (E) 10:17:05 435.675 MHz FM
KITSAT 1 02 Sep 11:11:45 11:17:19 21° 257° (WSW) 11:22:53 435.175 FM
ISS 02 Sep 11:22:53 11:25:52 30° 329° (NNW) 11:28:51 145.800 FM
PANSAT 02 Sep 11:29:45 11:31:39 13° 166° (SSE) 11:33:32 not established
UKube-1 02 Sep 11:34:19 11:38:36 59° 286° (WNW) 11:42:52 145.840 MHz, 145.915 MHz
Oscar 11 02 Sep 11:37:26 11:41:49 83° 283° (WNW) 11:46:10 145.825 FM, Beacon 2401.500 USB
HO-68 02 Sep 11:51:47 11:58:25 43° 294° (WNW) 12:05:03 435.675 MHz FM
RS-15 02 Sep 11:53:20 12:00:48 20° 338° (NNW) 12:08:18 29.354 - 29.394 USB, Beacon 29.352 USB
SO-50 02 Sep 11:55:09 11:58:51 22° 47° (NE) 12:02:34 436.795 FM
FUNcube-1 02 Sep 12:10:37 12:15:12 88° 103° (ESE) 12:19:50 145.950 - 145.970 MHz USB
MaSat-1 02 Sep 12:54:31 12:58:49 33° 106° (ESE) 13:03:22 437.345 MHz
Oscar 16 02 Sep 12:56:03 12:57:21 11° 60° (ENE) 12:58:38 437.025 USB, Beacon 2401.1428
ISS 02 Sep 13:03:04 13:03:27 10° 349° (NNW) 13:03:50 145.800 FM
PANSAT 02 Sep 13:08:26 13:11:11 19° 179° (S) 13:13:56 not established
SO-50 02 Sep 13:35:01 13:39:39 49° 244° (WSW) 13:44:20 436.795 FM
UOSAT-12 02 Sep 13:39:19 13:42:43 19° 45° (NE) 13:46:05 437.025 FM, 437.400 FM
Oscar 19 02 Sep 13:55:46 14:00:33 40° 70° (ENE) 14:05:22 437.125 CW, 437.150 USB
AO-Echo 02 Sep 14:01:39 14:05:19 21° 67° (ENE) 14:08:55 ?
RS-15 02 Sep 14:12:20 14:19:17 18° 16° (NNE) 14:26:18 29.354 - 29.394 USB, Beacon 29.352 USB
Gurwin Techsat 1B 02 Sep 14:13:10 14:14:54 12° 60° (ENE) 14:16:38 435.225 FM
JAS-1B 02 Sep 14:13:19 14:22:06 42° 66° (ENE) 14:29:59 435.800 - 435.900 CW/SSB
Oscar 16 02 Sep 14:30:43 14:35:53 90° 256° (WSW) 14:41:06 437.025 USB, Beacon 2401.1428
MaSat-1 02 Sep 14:31:25 14:35:48 30° 303° (WNW) 14:40:20 437.345 MHz
ITAMSAT 1 02 Sep 14:34:43 14:39:32 41° 70° (ENE) 14:44:21 435.822 SSB
Uribyol 2 02 Sep 14:43:42 14:48:41 53° 72° (ENE) 14:53:43 436.500 FM
AO-7 02 Sep 14:46:42 14:48:29 11° 45° (NE) 14:50:16 29.400 - 29.500 MHz
PANSAT 02 Sep 14:48:37 14:50:44 14° 192° (SSW) 14:52:51 not established
TMSAT-1 02 Sep 15:00:00 15:04:07 24° 66° (ENE) 15:08:16 436.925 FM
AO-27 02 Sep 15:04:08 15:09:18 81° 75° (ENE) 15:14:30 436.795 MHz FM
UOSAT-12 02 Sep 15:18:36 15:23:13 55° 243° (WSW) 15:27:44 437.025 FM, 437.400 FM
Oscar 19 02 Sep 15:36:00 15:40:00 23° 266° (W) 15:44:02 437.125 CW, 437.150 USB
AO-Echo 02 Sep 15:39:06 15:43:49 41° 261° (W) 15:48:26 ?
Gurwin Techsat 1B 02 Sep 15:48:46 15:54:04 88° 256° (WSW) 15:59:25 435.225 FM
JAS-1B 02 Sep 16:02:58 16:12:21 50° 261° (W) 16:20:51 435.800 - 435.900 CW/SSB
ITAMSAT 1 02 Sep 16:15:13 16:19:09 22° 266° (W) 16:23:06 435.822 SSB
ISS 02 Sep 16:16:16 16:19:08 26° 29° (NNE) 16:22:00 145.800 FM
RS-15 02 Sep 16:24:59 16:35:31 46° 47° (NE) 16:46:23 29.354 - 29.394 USB, Beacon 29.352 USB
Uribyol 2 02 Sep 16:25:15 16:28:28 17° 268° (W) 16:31:42 436.500 FM
AO-7 02 Sep 16:31:23 16:39:23 54° 66° (ENE) 16:47:23 29.400 - 29.500 MHz
Uosat F 02 Sep 16:32:21 16:36:46 33° 69° (ENE) 16:41:13 435.120 FM
TMSAT-1 02 Sep 16:38:49 16:43:46 41° 262° (W) 16:48:46 436.925 FM
Sapphire 02 Sep 16:47:46 16:52:49 42° 111° (ESE) 16:57:54 437.095 MHz 1200 baud AX-25 AFSK
AO-27 02 Sep 16:48:30 16:49:23 10° 270° (W) 16:50:16 436.795 MHz FM
PCSat 02 Sep 17:16:28 17:21:52 83° 116° (ESE) 17:27:19 145.825 MHz
ISS 02 Sep 17:52:50 17:55:54 35° 226° (SW) 17:58:58 145.800 FM
OPAL 02 Sep 18:05:50 18:10:59 55° 103° (ESE) 18:16:03 ?
Uosat F 02 Sep 18:11:23 18:15:33 26° 264° (W) 18:19:44 435.120 FM
JAS-2 02 Sep 18:25:08 18:30:52 47° 72° (ENE) 18:36:04 435.800 - 435.900 CW/SSB, 435.910 FM
AO-7 02 Sep 18:25:08 18:32:23 33° 263° (W) 18:39:39 29.400 - 29.500 MHz
Sapphire 02 Sep 18:31:50 18:36:22 27° 309° (NW) 18:40:56 437.095 MHz 1200 baud AX-25 AFSK
RS-15 02 Sep 18:37:25 18:48:02 53° 249° (WSW) 18:59:07 29.354 - 29.394 USB, Beacon 29.352 USB
Hamsat 02 Sep 18:51:05 18:55:24 81° 77° (ENE) 18:59:47 145.90 MHz
